Weather Roundup
Issued by NWS

Home | Current Version | Previous Version | Text Only | Print | Product List | Glossary On
Versions: 1 2 3 4 5 6 7 8 9 10 11 12 13 14 15 16 17 18 19 20 21 22 23 24 25 26 27 28 29 30 31 32 33 34 35 36 37 38 39 40 41 42 43 44 45 46 47 48 49 50
000
NZUS93 KARX 280710
HRRWXR

CURRENT HOURLY OBSERVATIONS ACROSS
MUCH OF THE UPPER MISSISSIPPI VALLEY
NATIONAL WEATHER SERVICE LA CROSSE WI
100 AM CST SAT FEB 28 2015


...SOUTHEAST MINNESOTA...


CITY           SKY/WX    TMP DP  RH WIND       PRES   REMARKS
ROCHESTER      PTCLDY    -9 -14  78 S10       30.51F WCI -27
ROCHESTER/MAYO FAIR      -2  -7  80 CALM      30.54S
WINONA         CLEAR      3  -4  72 CALM      30.61S
AUSTIN         PTCLDY    -8 -11  84 S5        30.53S WCI -19
ALBERT LEA     PTCLDY    -2  -8  78 S5        30.52S WCI -12
DODGE CENTER   PTCLDY    -2  -6  84 S9        30.50S WCI -18
PRESTON        MOCLDY    -8 -12  84 SW6       30.54S WCI -21
OWATONNA       PTCLDY    -2  -6  84 S9        30.51S WCI -18
FARIBAULT      CLEAR     -4  -8  84 S3        30.52F
$$

...ELSEWHERE IN MINNESOTA...


CITY           SKY/WX    TMP DP  RH WIND       PRES   REMARKS
MINNEAPOLIS    CLEAR      4  -3  73 S6        30.53F WCI  -7
INTNL FALLS    PTCLDY    -9 -16  71 CALM      30.33S
DULUTH         CLEAR      5  -6  60 W12       30.39S WCI -11
RED WING       CLEAR     -6  -9  84 CALM      30.56S
REDWOOD FALLS  CLEAR     -3  -8  79 S8        30.47F WCI -18
MANKATO        CLEAR     -2 -11  65 S6        30.51S WCI -14
FAIRMONT       PTCLDY    -8 -11  84 S6        30.47F WCI -21
$$

...SOUTHWEST WISCONSIN...


CITY           SKY/WX    TMP DP  RH WIND       PRES   REMARKS
LA CROSSE      CLEAR     -1  -7  75 SE5       30.61F WCI -11
PRAIRIE DU CHI PTCLDY    -9 -15  76 CALM      30.65S
BOSCOBEL       PTCLDY    -9 -14  78 CALM      30.66R
LONE ROCK      CLEAR    -10 -16  74 CALM      30.64R
PLATTEVILLE    PTCLDY    -4  -9  79 CALM      30.61S
FORT MC COY    CLEAR    -10 -15  80 CALM      30.60S
CAMP DOUGLAS   CLEAR     -1  -8  73 SW5       30.58S WCI -11
VIROQUA        FAIR      -3  -8  80 SW6       30.54S WCI -15
WIS DELLS      FAIR       1  -8  67 CALM      30.59S
$$

...ELSEWHERE IN WISCONSIN...


CITY           SKY/WX    TMP DP  RH WIND       PRES   REMARKS
MILWAUKEE      CLEAR      3  -7  63 W7        30.64R WCI  -9
MADISON        CLEAR     -1  -9  68 CALM      30.61R
GREEN BAY      CLEAR      6  -4  63 SW6       30.58R WCI  -4
EAU CLAIRE     FAIR       0  -6  76 S5        30.55R WCI -10
BLACK RVR FLS  FAIR      -9 -14  76 S3        30.59R
MEDFORD        PTCLDY    -1  -6  78 SW5       30.48R WCI -11
WAUSAU         CLEAR      2  -7  66 CALM      30.50S
WIS RAPIDS     CLEAR      0  -9  65 SW6       30.57R WCI -12
MARSHFIELD     PTCLDY    -2  -9  72 SW6       30.52R WCI -14
RICE LAKE      CLEAR     -1  -6  81 S3        30.52S
$$

...NORTHEAST IOWA...


CITY           SKY/WX    TMP DP  RH WIND       PRES   REMARKS
DECORAH        MOCLDY    -6 -11  77 S6        30.57S WCI -18
MASON CITY     PTCLDY   -11 -15  82 S6        30.55F WCI -25
CHARLES CITY   MOCLDY    -6  -9  84 S7        30.58S WCI -20
OELWEIN        MOCLDY    -9 -15  77 S5        30.59S WCI -21
$$

...ELSEWHERE IN IOWA...


CITY           SKY/WX    TMP DP  RH WIND       PRES   REMARKS
DES MOINES     CLEAR      5  -3  69 SE6       30.58S WCI  -6
IOWA CITY      PTCLDY    -9 -13  83 CALM      30.66S
FORT DODGE     PTCLDY     0  -6  78 SE3       30.54F
$$

...NORTHERN ILLINOIS...


CITY           SKY/WX    TMP DP  RH WIND       PRES   REMARKS
CHICAGO-OHARE  CLEAR      2  -6  69 W6        30.66S WCI  -9
CHICAGO-MIDWAY CLEAR      5  -5  63 SW5       30.69R WCI  -4
MOLINE         PTCLDY   -14 -21  71 CALM      30.67S
ROCKFORD       PTCLDY    -7 -14  71 S3        30.67S
PEORIA         PTCLDY     4  -3  73 CALM      30.67S
$$

NOTE: "FAIR" INDICATES FEW OR NO CLOUDS BELOW 12,000 FEET WITH NO
SIGNIFICANT WEATHER AND/OR OBSTRUCTIONS TO VISIBILITY. WIND
SPEEDS ARE IN MILES-PER-HOUR.



USA.gov is the U.S. government's official web portal to all federal, state and local government web resources and services.